Volver al catálogo

STARLINK-4435

ActivoComunicacionesSSO
NORAD 53502·PAYLOAD·🇺🇸 United States

Lanzado Aug 12, 2022 desde Vandenberg Space Force Base

Loading…

Próximos Pases (próximas 24 horas)

TLE

ActualizadoSource: CelesTrak SupGP

Época: Sep 15, 2026, 02:24 UTC

1 53502C 22099AP  26258.10048611 -.00022254  00000+0 -61766-3 0  2584
2 53502  97.4970  26.5408 0001139  89.0917 187.9639 15.36971806    16

Sigue STARLINK-4435 en tiempo real con AllMySat

Download on the App Store